loading
|

PAGEOS 1 DEB, 2511

Orbit data source: Space-Track

PAGEOS 1 DEB, 2511 is space debris originally from a launch on Fri, 24 Jun 1966 UTC launched from the Air Force Western Test Range (AFWTR). Debris objects in space refer to the collection of defunct objects orbiting the Earth. Examples of debris include non-operational satellites, rocket bodies, and fragments generated from explosions, collisions, or faulty payload assembly.

Loading next visibility...
Loading greatness...
PAGEOS 1 DEB details
Identifier
2511, 1966-056D
Orbit
Active
Last TLE update3 days ago
Origin
Flag of USNASA LaRC (US)
ManufacturerGoodyear
MissionSpacecraft
Bus & MotorECHO CANISTER, Unknown motor
Mass9 kg wet, 9 kg dry
Launch date (UTC)
1966-06-24 (58 years ago)
Launch vehicleUnknown
Launch site
Air Force Western Test Range (AFWTR)
Object type
Payload
Rocket body
Debris
Shape & HBRHalf Sphere, Unknown HBR
Radar Cross Section0.377 m², Large (>1 m²)

Expand to show TLE details & history

TLE from 3 days ago
0 PAGEOS 1 DEB
1 02511U 66056D   24278.97278189 -.00000027  00000-0 -28407-1 0  9999
2 02511  86.9723 279.2695 0015425 319.6041  40.3619  7.93367515303394
Epoch: 2024-10-04T23:20Z
Definitive object data (Epoch: 2024-10-04T23:20:48.355Z)
Latitude-0.00002°
Longitude-85.06775°
Altitude4,230.5 km
Speed6.134 km/s
True Right ascension18h 37m 04s
True Declination0° 00' 00"
Sunlit
Object was in daylight at TLE epoch
Predictive object data (real-time)
Latitude45.80852°
Longitude-82.20695°
Altitude4,247.077 km
Speed6.129 km/s
Apparent Right ascension20h 55m 02s
Apparent Declination20° 46' 21"
Sunlit
Object is in daylight
Predictive observer data (real-time)
Local Sidereal Time12:25:10
Azimuth49.36° ENE
Elevation-12.043°
Doppler factor1
Orbital elements
Apogee4,255.238 km
Perigee4,222.484 km
Semi-major axis10,616.998 km
Eccentricity0.0015425
Inclination86.9723°
RAAN279.2695°
Arg. of periapsis319.6041°
True anomaly40.47654°
Mean anomaly40.3619°
Eccentric anomaly40.4192°
Mean motion1.98399 °/min
BSTAR-0.028407
Period181.45 mins
No data available

PAGEOS 1 DEB Visibility forecast

Observer location: 39.9160978°, -105.1181434

PAGEOS 1 DEB is not visible in the next 10 days
Span
Click to sort rows by Start time (UTC) header in descending order
Start Az.
Max El. time (UTC)
Max El. Az.
Max El.
End time (UTC)
End Az.